Regional Weather Roundup
Issued by NWS

Home | Current Version | Previous Version | Text Only | Print | Product List | Glossary Off
Versions: 1 2 3 4 5 6 7 8 9 10 11 12 13 14 15 16 17 18 19 20 21 22 23 24 25 26 27 28 29 30 31 32 33 34 35 36 37 38 39 40 41 42 43 44 45 46 47 48 49 50

000
ASUS45 KTFX 251119
RWRMT
MONTANA HOURLY WEATHER ROUNDUP
NATIONAL WEATHER SERVICE GREAT FALLS MT
419 AM MST THU DEC 25 2014

NOTE: "FAIR" INDICATES FEW OR NO CLOUDS BELOW 12000 FEET WITH NO
SIGNIFICANT WEATHER AND/OR OBSTRUCTIONS TO VISIBILITY.

* THESE STATIONS ARE NOT UNDER NWS QUALITY CONTROL. THEY DO NOT
   REPORT WEATHER SUCH AS PRECIPITATION OR FOG.

MTZ001>007-043-251200-
WEST OF THE DIVIDE
CITY           SKY/WX    TMP DP  RH WIND       PRES   REMARKS
KALISPELL      MOCLDY    28  25  89 N8        29.79R WCI  20
MISSOULA       LGT SNOW  30  28  92 W7        29.78R VSB 1 1/4 WCI  23
BUTTE          CLOUDY    25  16  69 N14G21    29.61R WCI  13
MULLAN PASS    FOG       25  19  78 N6        29.69R VSB M1/4 WCI  18
* HAMILTON APT CLOUDY    30  30 100 CALM      29.71R
* LIBBY APT    CLEAR     28  27  96 CALM      29.86R VSB 1/2
* LINCOLN      N/A       24  20  85 E5G10      N/A   WCI  18
* LOOKOUT PASS N/A       26  26 100 N2G7       N/A
* POLSON       N/A       28  27  96 N/A        N/A
* RONAN APT    CLOUDY    30  25  82 N/A        N/A
* SEELEY LAKE  N/A       26  25  96 S1         N/A
* THOMP F APT  PTCLDY    23  18  81 N15G27     N/A   WCI  10
* YAAK HILL    N/A       30  27  89 N1         N/A
$$

MTZ008-052>055-251200-
SOUTHWEST MONTANA
CITY           SKY/WX    TMP DP  RH WIND       PRES   REMARKS
BOZEMAN        LGT SNOW  28  25  89 N9        29.60R WCI  19
DILLON         LGT SNOW  25  23  92 NE13      29.54R VSB 2    WCI  13
* W YELLOWSTON CLOUDY    20  18  92 N/A        N/A
* THREE FORKS  CLOUDY    28 -13  16 N11G18     N/A   WCI  18
* TWIN BRIDGES CLOUDY    25  19  78 N20G26     N/A   WCI  11
* BOULDER HILL N/A       21  18  88 N20G30     N/A   WCI   6
* MONIDA PASS  N/A       22  19  88 NW17G24    N/A   WCI   8
* RAYNOLDS PAS N/A       21  19  92 VRB24G37    N/A   WCI   4
* WHITEHALL    N/A       27  23  85 NE12G25    N/A   WCI  16
* WISE RIVER   N/A       23  18  81 E5G11      N/A   WCI  16
$$

MTZ009>010-012-014-046-048-049-054-251200-
EAST SLOPES AND CENTRAL MONTANA
CITY           SKY/WX    TMP DP  RH WIND       PRES   REMARKS
CUT BANK       CLOUDY    25  19  78 NW10      29.78R WCI  15
GREAT FALLS    N/A       23  19  85 N6        29.78R WCI  16
HELENA         CLOUDY    28  23  81 NW10      29.72R WCI  19
MALMSTROM AFB  CLOUDY    23  21  92 NW8       29.81R WCI  14
* CONRAD       MOCLDY    21  18  88 W6         N/A   WCI  13
* DEARBORN     N/A       27  23  85 VRB11G17    N/A   WCI  17
* EAST GLACIER N/A       20  16  84 NW2        N/A
* MONARCH      N/A       20  17  88 N13G19     N/A   WCI   7
* PENDROY      N/A       21  18  88 N12        N/A   WCI   9
* ROGERS PASS  N/A       20  18  92 SE4G11     N/A
* SWEET GRASS  N/A       20  20 100 VRB10      N/A   WCI   9
* WHITE SULPH  N/A       24  16  71 N8         N/A   WCI  15
$$

MTZ011-013-016-021-035-040-045-047-050-051-251200-
NORTH CENTRAL MONTANA
CITY           SKY/WX    TMP DP  RH WIND       PRES   REMARKS
HAVRE          CLOUDY    25  21  85 NW7       29.79R WCI  17
LEWISTOWN      CLOUDY    25  21  85 NW14      29.71R WCI  13
* N BAR RANCH  CLOUDY    25  21  85 N12       29.68R WCI  14
* CHINOOK      PTCLDY    27  21  78 NW7       29.79R WCI  19
* CHESTER      N/A       24  18  78 NW1        N/A
* DENTON       N/A       25  22  88 NW17       N/A   WCI  12
* GEYSER       N/A       22  19  88 SW5        N/A   WCI  15
* JUDITH GAP   N/A       24  23  96 N27G32     N/A   WCI   7
* LOMA         N/A       25  22  88 NW7        N/A   WCI  17
$$

MTZ017>020-022>027-061-062-251200-
NORTHEAST MONTANA
CITY           SKY/WX    TMP DP  RH WIND       PRES   REMARKS
GLASGOW        CLOUDY    27  19  72 N21       29.72R WCI  13
GLENDIVE       MOCLDY    25  19  78 N12       29.67R WCI  14
JORDAN         CLOUDY    28  23  81 N12       29.70R WCI  18
SIDNEY         CLOUDY    25  19  78 W9        29.68R WCI  16
WOLF POINT     CLOUDY    28  21  75 NW12      29.71R WCI  18
* BEAVER HILL  N/A       23  21  92 NW8        N/A   WCI  14
* CIRCLE       N/A       28  23  81 NW6G12     N/A   WCI  21
* LINDSAY DVD  N/A       23  21  92 NW14G19    N/A   WCI  10
* NAVAJO       N/A       23  20  88 NW19G26    N/A   WCI   9
* PLENTYWOOD A MOCLDY    25  21  85 N17G23    29.66R WCI  12
* POPLAR APT   MOCLDY    27  21  78 N/A       29.70R
* SACO         N/A       27  21  78 NW14G19    N/A   WCI  16
* SCOBEY APT   MOCLDY    25  16  69 NW18       N/A   WCI  11
$$

MTZ028>042-056>058-251200-
SOUTHCENTRAL AND SOUTHEAST MONTANA
CITY           SKY/WX    TMP DP  RH WIND       PRES   REMARKS
BAKER          CLOUDY    27  25  92 N13       29.61R WCI  16
BILLINGS       LGT SNOW  28  27  96 NE15      29.66R VSB 1 1/2 WCI  16
LIVINGSTON     LGT SNOW  27  25  92 E20       29.61R VSB 2    WCI  13
MILES CITY     CLOUDY    28  27  96 N15       29.66R WCI  16
* BIG TIMBER A CLOUDY    25  25 100 NE9       29.66R VSB 1    WCI  16
* FORSYTH APT  CLOUDY    28  28 100 N7        29.68R WCI  21
* LAUREL APT   CLOUDY    28  19  69 N11G18     N/A   WCI  18
* ROUNDUP APT  CLOUDY    27  21  78 N8         N/A   WCI  19
* ALZADA       N/A       29  28  96 N5         N/A   WCI  24
* HYSHAM       N/A       28  26  92 NE6G13     N/A   WCI  21
* REED POINT   N/A       28  27  96 NE8        N/A   WCI  20
* ROSCOE HILL  N/A       24  21  88 NE14       N/A   WCI  12
$$

REGIONAL REPORTS...DAKOTAS
CITY           SKY/WX    TMP DP  RH WIND       PRES   REMARKS
WILLISTON      CLOUDY    27  23  85 NW9       29.65R WCI  18
DICKINSON      MOCLDY    25  21  85 NW10      29.58R WCI  15
BEACH          CLOUDY    23  23 100 NW10      29.64R WCI  13
CROSBY         CLOUDY    25  25 100 NW15      29.66R WCI  13
TIOGA          CLOUDY    25  25 100 NW13      29.63R WCI  13
WATFORD CITY   CLOUDY    23  21  92 NW7       29.62R WCI  15
BISMARCK       MOCLDY    25  21  85 W6        29.60R WCI  18
GRAND FORKS    CLOUDY    28  27  96 NW7       29.54R WCI  21
FARGO          CLOUDY    27  23  85 W6        29.56R WCI  20
BUFFALO SD     CLOUDY    30  27  89 N6        29.50R WCI  24
RAPID CITY     LGT SNOW  30  30 100 N8        29.52R VSB 2    WCI  22
$$

REGIONAL REPORTS...WYOMING/IDAHO/WASHINGTON
CITY           SKY/WX    TMP DP  RH WIND       PRES   REMARKS
GILLETTE       LGT SNOW  28  27  96 N16       29.48R VSB 2    WCI  16
SHERIDAN       LGT SNOW  30  27  89 N12       29.58R VSB 1 1/2 WCI  20
CODY           CLOUDY    27  23  85 N23G29    29.51R VSB 2    WCI  13
YELLOWSTONE LA CLOUDY    21  18  88 VRB5      29.37F WCI  14
SALMON         CLOUDY    30  21  69 N10       29.61R WCI  21
MULLAN PASS    FOG       25  19  78 N6        29.69S VSB M1/4 WCI  18
SAND POINT     CLOUDY    32  32 100 N6        29.87R WCI  26
SPOKANE        CLEAR     27  23  85 W8        29.86R WCI  19
$$

REGIONAL REPORTS...ALBERTA
CITY           SKY/WX    TMP DP  RH WIND       PRES   REMARKS
CALGARY        CLOUDY    21  19  92 NE7       29.79R WCI  12
LETHBRIDGE     CLOUDY    25  21  85 W12       29.81R WCI  14
MEDICINE HAT   CLOUDY    23  21  92 NW8       29.84R WCI  14
EDMONTON       MOCLDY     9   5  84 VRB2      29.89R
WATERTON GATE  N/A       21  18  88 SW5        N/A   WCI  14
CARDSTON       N/A       23  21  92 NW3        N/A
MILK RIVER     N/A       21  19  92 N9         N/A   WCI  11
$$

REGIONAL REPORTS...SASKATCHEWAN
CITY           SKY/WX    TMP DP  RH WIND       PRES   REMARKS
SWIFT CURRENT  LGT SNOW  19  18  96 NW21G26   29.72R WCI   3
REGINA         LGT SNOW  23  21  92 NW13      29.67R VSB 3    WCI  11
VAL MARIE      N/A       25  21  85 N18G24     N/A   WCI  11
ASSINIBOIA     N/A       23  19  85 NW21G29    N/A   WCI   8

$$



USA.gov is the U.S. government's official web portal to all federal, state and local government web resources and services.